Overview Statistics Trail Chart Weather Telemetry Raw packets
 

This is the latest recevied weather packets stored in our database for station/object KBTL-WX. If no packets are shown the sender has not sent any weather packets the latest 10 day(s).

<< 9 10 11 12 13 14 15 >>
Time Temp. Humidity Pressure Rain* Wind** Luminosity Snow
1777713313 -0.56° C 83% 984.9 hPa 0 mm - - -
1777712436 -0.56° C 83% 984.9 hPa 0 mm - - -
1777711512 -0.56° C 82% 984.2 hPa 0 mm - - -
1777710632 -0.56° C 82% 984.5 hPa 0 mm - - -
1777709714 -0.56° C 82% 984.5 hPa 0 mm - - -
1777708838 -0.56° C 82% 984.5 hPa 0 mm - - -
1777707913 -0.56° C 82% 983.8 hPa 0 mm - - -
1777707026 -0.56° C 82% 983.8 hPa 0 mm - - -
1777706113 -0.56° C 82% 983.8 hPa 0 mm - - -
1777705234 -0.56° C 82% 983.8 hPa 0 mm - - -
1777704313 -0.56° C 76% 984.7 hPa 0 mm - - -
1777703433 0° C 80% 984.7 hPa 0 mm - - -
1777702513 0° C 80% 984.7 hPa 0 mm - - -
1777701641 0° C 80% 984.7 hPa 0 mm - - -
1777700713 0° C 70% 983.8 hPa 0 mm - - -
1777699832 0° C 73% 984.4 hPa 0 mm - - -
1777698913 0.56° C 73% 984.4 hPa 0 mm - - -
1777698037 0.56° C 73% 984.4 hPa 0 mm - - -
1777697114 0.56° C 64% 984 hPa 0 mm - - -
1777696231 0.56° C 71% 984 hPa 0 mm - - -
1777695313 1.11° C 71% 984 hPa 0 mm - - -
1777694435 1.11° C 71% 984 hPa 0 mm - - -
1777693513 1.67° C 66% 983.4 hPa 0 mm - - -
1777692632 1.67° C 69% 983.2 hPa 0 mm - - -
1777691713 1.67° C 69% 983.2 hPa 0 mm - - -

* Rain latest hour (hover to see other rain measurements)
** Current wind speed in m/s (hover to see current wind gust speed)